Time,TemperatureF,DewpointF,PressureIn,WindDirection,WindDirectionDegrees,WindSpeedMPH,WindSpeedGustMPH,Humidity,HourlyPrecipIn,Conditions,Clouds,dailyrainin,SoftwareType,DateUTC
2013-02-25 00:02:00,39.4,12.0,30.03,WNW,292,0.0,0.0,32,0.00,,---,0.00,VWS V14.01,2013-02-25 07:02:00,
2013-02-25 00:07:00,39.4,12.0,30.03,NW,315,0.9,0.9,32,0.00,,---,0.00,VWS V14.01,2013-02-25 07:07:00,
2013-02-25 00:12:00,39.4,12.0,30.03,NW,315,0.0,0.0,32,0.00,,---,0.00,VWS V14.01,2013-02-25 07:12:00,
2013-02-25 00:17:00,39.2,11.8,30.03,North,0,0.0,0.0,32,0.00,,---,0.00,VWS V14.01,2013-02-25 07:17:00,
2013-02-25 00:22:00,39.0,12.4,30.03,NNW,338,0.0,0.0,33,0.00,,---,0.00,VWS V14.01,2013-02-25 07:22:00,
2013-02-25 00:27:00,39.0,12.4,30.03,NW,315,0.0,0.0,33,0.00,,---,0.00,VWS V14.01,2013-02-25 07:27:00,
2013-02-25 00:32:00,39.0,11.7,30.03,NW,315,0.0,0.0,32,0.00,,---,0.00,VWS V14.01,2013-02-25 07:32:00,
2013-02-25 00:37:00,38.8,12.2,30.03,NW,315,0.0,0.0,33,0.00,,---,0.00,VWS V14.01,2013-02-25 07:37:00,
2013-02-25 00:42:00,38.7,12.1,30.03,NNW,338,0.0,0.0,33,0.00,,---,0.00,VWS V14.01,2013-02-25 07:42:00,
2013-02-25 00:47:00,38.5,11.9,30.03,NNW,338,0.0,0.0,33,0.00,,---,0.00,VWS V14.01,2013-02-25 07:47:00,
2013-02-25 00:52:00,38.5,11.9,30.03,North,0,0.0,0.0,33,0.00,,---,0.00,VWS V14.01,2013-02-25 07:52:00,
2013-02-25 00:57:00,38.5,11.9,30.06,NNW,338,0.0,0.0,33,0.00,,---,0.00,VWS V14.01,2013-02-25 07:57:00,
2013-02-25 01:02:00,38.1,11.6,30.06,NW,315,0.0,0.0,33,0.00,,---,0.00,VWS V14.01,2013-02-25 08:02:00,
2013-02-25 01:07:00,38.1,11.6,30.06,NNW,338,0.0,0.0,33,0.00,,---,0.00,VWS V14.01,2013-02-25 08:07:00,
2013-02-25 01:12:00,38.3,11.7,30.06,NNW,338,0.0,0.0,33,0.00,,---,0.00,VWS V14.01,2013-02-25 08:12:00,
2013-02-25 01:17:00,38.5,11.9,30.06,NNW,338,0.0,0.0,33,0.00,,---,0.00,VWS V14.01,2013-02-25 08:17:00,
2013-02-25 01:22:00,38.5,11.9,30.06,NNW,338,0.0,0.0,33,0.00,,---,0.00,VWS V14.01,2013-02-25 08:22:00,
2013-02-25 01:27:00,38.5,11.9,30.06,NNW,338,0.0,0.0,33,0.00,,---,0.00,VWS V14.01,2013-02-25 08:27:00,
2013-02-25 01:32:00,38.5,11.9,30.06,NNW,338,0.0,0.0,33,0.00,,---,0.00,VWS V14.01,2013-02-25 08:32:00,
2013-02-25 01:37:00,38.5,11.9,30.06,NNW,338,0.0,0.0,33,0.00,,---,0.00,VWS V14.01,2013-02-25 08:37:00,
2013-02-25 01:42:00,38.5,12.6,30.06,NNW,338,0.0,0.0,34,0.00,,---,0.00,VWS V14.01,2013-02-25 08:42:00,
2013-02-25 01:47:00,38.3,12.4,30.06,NNW,338,0.0,0.0,34,0.00,,---,0.00,VWS V14.01,2013-02-25 08:47:00,
2013-02-25 01:52:00,38.1,12.2,30.06,North,0,0.0,0.0,34,0.00,,---,0.00,VWS V14.01,2013-02-25 08:52:00,
2013-02-25 01:57:00,37.9,12.1,30.06,NE,45,0.0,0.0,34,0.00,,---,0.00,VWS V14.01,2013-02-25 08:57:00,
2013-02-25 02:02:00,37.6,11.8,30.06,NNW,338,0.0,0.0,34,0.00,,---,0.00,VWS V14.01,2013-02-25 09:02:00,
2013-02-25 02:07:00,37.6,11.8,30.06,NW,315,0.0,0.0,34,0.00,,---,0.00,VWS V14.01,2013-02-25 09:07:00,
2013-02-25 02:12:00,37.8,12.6,30.06,NW,315,0.0,0.0,35,0.00,,---,0.00,VWS V14.01,2013-02-25 09:12:00,
2013-02-25 02:17:00,37.8,12.6,30.06,NW,315,0.0,0.0,35,0.00,,---,0.00,VWS V14.01,2013-02-25 09:17:00,
2013-02-25 02:22:00,37.9,12.7,30.06,NNW,338,0.0,0.0,35,0.00,,---,0.00,VWS V14.01,2013-02-25 09:22:00,
2013-02-25 02:27:00,37.6,12.4,30.06,NNW,338,2.0,2.2,35,0.00,,---,0.00,VWS V14.01,2013-02-25 09:27:00,
2013-02-25 02:32:00,37.4,12.3,30.06,NW,315,0.0,0.0,35,0.00,,---,0.00,VWS V14.01,2013-02-25 09:32:00,
2013-02-25 02:37:00,37.4,12.9,30.06,NW,315,0.0,0.0,36,0.00,,---,0.00,VWS V14.01,2013-02-25 09:37:00,
2013-02-25 02:42:00,37.2,12.7,30.06,NW,315,0.0,0.0,36,0.00,,---,0.00,VWS V14.01,2013-02-25 09:42:00,
2013-02-25 02:47:00,37.0,12.6,30.06,NW,315,0.0,0.0,36,0.00,,---,0.00,VWS V14.01,2013-02-25 09:47:00,
2013-02-25 02:52:00,37.0,12.6,30.06,NNW,338,0.0,0.0,36,0.00,,---,0.00,VWS V14.01,2013-02-25 09:52:00,
2013-02-25 02:57:00,37.0,12.6,30.06,NNW,338,0.0,0.0,36,0.00,,---,0.00,VWS V14.01,2013-02-25 09:57:00,
2013-02-25 03:02:00,37.2,13.4,30.06,NNW,338,0.0,0.0,37,0.00,,---,0.00,VWS V14.01,2013-02-25 10:02:00,
2013-02-25 03:07:00,37.2,13.4,30.06,NNW,338,0.0,0.0,37,0.00,,---,0.00,VWS V14.01,2013-02-25 10:07:00,
2013-02-25 03:12:00,37.0,13.2,30.06,NNW,338,0.0,0.0,37,0.00,,---,0.00,VWS V14.01,2013-02-25 10:12:00,
2013-02-25 03:17:00,37.0,13.2,30.06,NNW,338,0.0,0.0,37,0.00,,---,0.00,VWS V14.01,2013-02-25 10:17:00,
2013-02-25 03:22:00,37.0,13.2,30.06,NNW,338,0.0,0.0,37,0.00,,---,0.00,VWS V14.01,2013-02-25 10:22:00,
2013-02-25 03:27:00,37.0,13.2,30.06,NNW,338,0.0,0.0,37,0.00,,---,0.00,VWS V14.01,2013-02-25 10:27:00,
2013-02-25 03:32:00,36.9,13.0,30.06,NW,315,0.0,0.0,37,0.00,,---,0.00,VWS V14.01,2013-02-25 10:32:00,
2013-02-25 03:37:00,36.9,13.6,30.06,NW,315,0.0,0.0,38,0.00,,---,0.00,VWS V14.01,2013-02-25 10:37:00,
2013-02-25 03:42:00,36.9,13.6,30.06,NNW,338,0.0,0.0,38,0.00,,---,0.00,VWS V14.01,2013-02-25 10:42:00,
2013-02-25 03:47:00,36.9,13.6,30.06,NNW,338,0.0,0.0,38,0.00,,---,0.00,VWS V14.01,2013-02-25 10:47:00,
2013-02-25 03:52:00,36.9,13.6,30.06,NW,315,0.0,0.0,38,0.00,,---,0.00,VWS V14.01,2013-02-25 10:52:00,
2013-02-25 03:57:00,36.9,13.6,30.06,NNW,338,0.0,0.0,38,0.00,,---,0.00,VWS V14.01,2013-02-25 10:57:00,
2013-02-25 04:02:00,37.0,13.8,30.06,NNW,338,0.0,0.0,38,0.00,,---,0.00,VWS V14.01,2013-02-25 11:02:00,
2013-02-25 04:07:00,36.9,13.6,30.06,NNW,338,0.0,0.0,38,0.00,,---,0.00,VWS V14.01,2013-02-25 11:07:00,
2013-02-25 04:12:00,36.7,14.1,30.06,NNW,338,0.0,0.0,39,0.00,,---,0.00,VWS V14.01,2013-02-25 11:12:00,
2013-02-25 04:17:00,36.7,14.1,30.06,NNW,338,0.0,0.0,39,0.00,,---,0.00,VWS V14.01,2013-02-25 11:17:00,
2013-02-25 04:22:00,36.5,13.9,30.06,North,0,2.0,2.0,39,0.00,,---,0.00,VWS V14.01,2013-02-25 11:22:00,
2013-02-25 04:27:00,36.3,13.8,30.06,NNW,338,0.0,0.0,39,0.00,,---,0.00,VWS V14.01,2013-02-25 11:27:00,
2013-02-25 04:32:00,36.1,13.6,30.06,NNW,338,0.0,0.0,39,0.00,,---,0.00,VWS V14.01,2013-02-25 11:32:00,
2013-02-25 04:37:00,36.1,13.6,30.06,North,0,0.0,0.0,39,0.00,,---,0.00,VWS V14.01,2013-02-25 11:37:00,
2013-02-25 04:42:00,36.1,13.6,30.06,NNW,338,0.0,0.0,39,0.00,,---,0.00,VWS V14.01,2013-02-25 11:42:00,
2013-02-25 04:47:00,36.1,13.6,30.06,NNW,338,0.0,0.0,39,0.00,,---,0.00,VWS V14.01,2013-02-25 11:47:00,
2013-02-25 04:52:00,36.1,13.6,30.06,NNW,338,0.0,0.0,39,0.00,,---,0.00,VWS V14.01,2013-02-25 11:52:00,
2013-02-25 04:57:00,36.1,13.6,30.09,NNW,338,0.0,0.0,39,0.00,,---,0.00,VWS V14.01,2013-02-25 11:57:00,
2013-02-25 05:02:00,36.3,14.3,30.09,North,0,0.0,0.0,40,0.00,,---,0.00,VWS V14.01,2013-02-25 12:02:00,
2013-02-25 05:07:00,36.1,14.2,30.09,NNW,338,1.1,1.1,40,0.00,,---,0.00,VWS V14.01,2013-02-25 12:07:00,
2013-02-25 05:12:00,36.0,14.0,30.06,NNW,338,2.7,2.7,40,0.00,,---,0.00,VWS V14.01,2013-02-25 12:12:00,
2013-02-25 05:17:00,35.8,13.8,30.06,NNW,338,1.3,1.3,40,0.00,,---,0.00,VWS V14.01,2013-02-25 12:17:00,
2013-02-25 05:22:00,35.6,13.7,30.06,NNW,338,0.0,0.0,40,0.00,,---,0.00,VWS V14.01,2013-02-25 12:22:00,
2013-02-25 05:27:00,35.8,13.8,30.09,NW,315,0.0,0.0,40,0.00,,---,0.00,VWS V14.01,2013-02-25 12:27:00,
2013-02-25 05:33:00,35.6,13.7,30.09,NNW,338,0.0,0.0,40,0.00,,---,0.00,VWS V14.01,2013-02-25 12:33:00,
2013-02-25 05:38:00,35.6,13.7,30.09,NNW,338,0.0,0.0,40,0.00,,---,0.00,VWS V14.01,2013-02-25 12:38:00,
2013-02-25 05:43:00,35.6,13.7,30.09,NNW,338,1.1,1.1,40,0.00,,---,0.00,VWS V14.01,2013-02-25 12:43:00,
2013-02-25 05:48:00,35.6,13.7,30.09,NNW,338,0.0,0.0,40,0.00,,---,0.00,VWS V14.01,2013-02-25 12:48:00,
2013-02-25 05:53:00,35.4,14.1,30.09,North,0,0.0,0.0,41,0.00,,---,0.00,VWS V14.01,2013-02-25 12:53:00,
2013-02-25 05:58:00,35.4,14.1,30.09,NNW,338,0.0,0.0,41,0.00,,---,0.00,VWS V14.01,2013-02-25 12:58:00,
2013-02-25 06:03:00,35.1,13.8,30.09,South,180,0.0,0.0,41,0.00,,---,0.00,VWS V14.01,2013-02-25 13:03:00,
2013-02-25 06:08:00,34.3,13.1,30.09,South,180,0.0,0.0,41,0.00,,---,0.00,VWS V14.01,2013-02-25 13:08:00,
2013-02-25 06:13:00,33.8,12.6,30.09,WSW,248,0.0,0.0,41,0.00,,---,0.00,VWS V14.01,2013-02-25 13:13:00,
2013-02-25 06:18:00,33.4,12.8,30.09,SW,225,0.0,0.0,42,0.00,,---,0.00,VWS V14.01,2013-02-25 13:18:00,
2013-02-25 06:23:00,33.3,12.7,30.09,SW,225,0.0,0.0,42,0.00,,---,0.00,VWS V14.01,2013-02-25 13:23:00,
2013-02-25 06:28:00,33.1,12.5,30.09,SW,225,0.0,0.0,42,0.00,,---,0.00,VWS V14.01,2013-02-25 13:28:00,
2013-02-25 06:33:00,32.7,12.2,30.09,SW,225,0.0,0.0,42,0.00,,---,0.00,VWS V14.01,2013-02-25 13:33:00,
2013-02-25 06:38:00,32.4,11.9,30.09,SW,225,0.0,0.0,42,0.00,,---,0.00,VWS V14.01,2013-02-25 13:38:00,
2013-02-25 06:44:00,32.0,12.1,30.09,SW,225,0.0,0.0,43,0.00,,---,0.00,VWS V14.01,2013-02-25 13:44:00,
2013-02-25 06:49:00,31.5,11.6,30.09,SW,225,0.0,0.0,43,0.00,,---,0.00,VWS V14.01,2013-02-25 13:49:00,
2013-02-25 06:54:00,31.5,11.6,30.09,SW,225,0.0,0.0,43,0.00,,---,0.00,VWS V14.01,2013-02-25 13:54:00,
2013-02-25 06:59:00,31.5,12.1,30.12,SW,225,0.0,0.0,44,0.00,,---,0.00,VWS V14.01,2013-02-25 13:59:00,
2013-02-25 07:04:00,31.3,11.9,30.12,SW,225,0.0,0.0,44,0.00,,---,0.00,VWS V14.01,2013-02-25 14:04:00,
2013-02-25 07:09:00,31.1,11.8,30.12,SW,225,0.0,0.0,44,0.00,,---,0.00,VWS V14.01,2013-02-25 14:09:00,
2013-02-25 07:14:00,30.9,12.1,30.12,SW,225,0.0,0.0,45,0.00,,---,0.00,VWS V14.01,2013-02-25 14:14:00,
2013-02-25 07:19:00,30.9,12.6,30.12,SW,225,0.0,0.0,46,0.00,,---,0.00,VWS V14.01,2013-02-25 14:19:00,
2013-02-25 07:24:00,30.7,12.4,30.12,SW,225,0.0,0.0,46,0.00,,---,0.00,VWS V14.01,2013-02-25 14:24:00,
2013-02-25 07:29:00,30.9,12.6,30.12,SW,225,0.0,0.0,46,0.00,,---,0.00,VWS V14.01,2013-02-25 14:29:00,
2013-02-25 07:34:00,31.3,13.4,30.12,SW,225,0.0,0.0,47,0.00,,---,0.00,VWS V14.01,2013-02-25 14:34:00,
2013-02-25 07:39:00,32.2,14.2,30.12,SW,225,0.0,0.0,47,0.00,,---,0.00,VWS V14.01,2013-02-25 14:39:00,
2013-02-25 07:44:00,33.3,16.2,30.12,West,270,0.0,0.0,49,0.00,,---,0.00,VWS V14.01,2013-02-25 14:44:00,
2013-02-25 07:49:00,34.2,16.5,30.12,SW,225,0.0,0.0,48,0.00,,---,0.00,VWS V14.01,2013-02-25 14:49:00,
2013-02-25 07:54:00,35.1,17.8,30.12,SSW,202,0.0,0.0,49,0.00,,---,0.00,VWS V14.01,2013-02-25 14:54:00,
2013-02-25 07:59:00,36.0,18.2,30.15,ENE,68,0.0,0.0,48,0.00,,---,0.00,VWS V14.01,2013-02-25 14:59:00,
2013-02-25 08:04:00,37.0,19.2,30.15,ENE,68,0.0,0.0,48,0.00,,---,0.00,VWS V14.01,2013-02-25 15:04:00,
2013-02-25 08:09:00,37.6,19.2,30.15,SE,135,0.0,0.0,47,0.00,,---,0.00,VWS V14.01,2013-02-25 15:09:00,
2013-02-25 08:15:00,38.3,19.9,30.15,SW,225,0.0,0.0,47,0.00,,---,0.00,VWS V14.01,2013-02-25 15:15:00,
2013-02-25 08:20:00,39.2,19.7,30.15,WSW,248,0.0,0.0,45,0.00,,---,0.00,VWS V14.01,2013-02-25 15:20:00,
2013-02-25 08:25:00,40.3,19.6,30.15,NW,315,0.0,0.0,43,0.00,,---,0.00,VWS V14.01,2013-02-25 15:25:00,
2013-02-25 08:30:00,41.4,19.5,30.15,North,0,0.0,0.0,41,0.00,,---,0.00,VWS V14.01,2013-02-25 15:30:00,
2013-02-25 08:35:00,42.1,19.5,30.15,North,0,0.0,0.0,40,0.00,,---,0.00,VWS V14.01,2013-02-25 15:35:00,
2013-02-25 08:40:00,42.4,19.8,30.15,NNE,22,0.0,0.0,40,0.00,,---,0.00,VWS V14.01,2013-02-25 15:40:00,
2013-02-25 08:45:00,43.0,20.3,30.15,North,0,0.0,0.0,40,0.00,,---,0.00,VWS V14.01,2013-02-25 15:45:00,
2013-02-25 08:50:00,43.7,20.4,30.15,WSW,248,0.0,0.0,39,0.00,,---,0.00,VWS V14.01,2013-02-25 15:50:00,
2013-02-25 08:55:00,44.2,20.9,30.15,WSW,248,0.0,0.0,39,0.00,,---,0.00,VWS V14.01,2013-02-25 15:55:00,
2013-02-25 09:00:00,45.1,21.7,30.15,SE,135,0.0,0.0,39,0.00,,---,0.00,VWS V14.01,2013-02-25 16:00:00,
2013-02-25 09:05:00,45.7,22.2,30.15,ESE,112,0.0,0.0,39,0.00,,---,0.00,VWS V14.01,2013-02-25 16:05:00,
2013-02-25 09:10:00,46.8,22.5,30.15,East,90,0.0,0.0,38,0.00,,---,0.00,VWS V14.01,2013-02-25 16:10:00,
2013-02-25 09:15:00,47.3,23.0,30.15,ESE,112,0.0,0.0,38,0.00,,---,0.00,VWS V14.01,2013-02-25 16:15:00,
2013-02-25 09:20:00,48.2,23.8,30.15,East,90,0.0,0.0,38,0.00,,---,0.00,VWS V14.01,2013-02-25 16:20:00,
2013-02-25 09:26:00,48.6,23.5,30.12,NNW,338,0.0,0.0,37,0.00,,---,0.00,VWS V14.01,2013-02-25 16:26:00,
2013-02-25 09:31:00,48.9,23.8,30.12,ESE,112,0.0,0.0,37,0.00,,---,0.00,VWS V14.01,2013-02-25 16:31:00,
2013-02-25 09:36:00,49.1,24.0,30.12,ENE,68,0.0,0.0,37,0.00,,---,0.00,VWS V14.01,2013-02-25 16:36:00,
2013-02-25 09:41:00,49.8,24.6,30.12,SE,135,0.0,0.0,37,0.00,,---,0.00,VWS V14.01,2013-02-25 16:41:00,
2013-02-25 09:46:00,50.4,23.1,30.12,NE,45,0.9,0.9,34,0.00,,---,0.00,VWS V14.01,2013-02-25 16:46:00,
2013-02-25 09:51:00,50.2,20.7,30.12,ESE,112,0.9,0.9,31,0.00,,---,0.00,VWS V14.01,2013-02-25 16:51:00,
2013-02-25 09:56:00,50.9,22.1,30.12,NNE,22,1.3,1.3,32,0.00,,---,0.00,VWS V14.01,2013-02-25 16:56:00,
2013-02-25 10:01:00,50.9,19.8,30.12,NNE,22,1.1,1.1,29,0.00,,---,0.00,VWS V14.01,2013-02-25 17:01:00,
2013-02-25 10:06:00,51.1,20.8,30.12,ENE,68,6.5,6.5,30,0.00,,---,0.00,VWS V14.01,2013-02-25 17:06:00,
2013-02-25 10:11:00,51.3,20.9,30.12,SE,135,1.6,1.6,30,0.00,,---,0.00,VWS V14.01,2013-02-25 17:11:00,
2013-02-25 10:16:00,52.0,20.7,30.12,NNW,338,2.7,2.7,29,0.00,,---,0.00,VWS V14.01,2013-02-25 17:16:00,
2013-02-25 10:21:00,52.0,20.7,30.12,NNE,22,0.0,2.0,29,0.00,,---,0.00,VWS V14.01,2013-02-25 17:21:00,
2013-02-25 10:26:00,51.8,20.6,30.12,West,270,0.0,0.0,29,0.00,,---,0.00,VWS V14.01,2013-02-25 17:26:00,
2013-02-25 10:31:00,52.2,20.1,30.12,East,90,0.0,0.9,28,0.00,,---,0.00,VWS V14.01,2013-02-25 17:31:00,
2013-02-25 10:36:00,52.5,20.4,30.12,SSW,202,0.0,1.6,28,0.00,,---,0.00,VWS V14.01,2013-02-25 17:36:00,
2013-02-25 10:41:00,53.1,20.8,30.12,North,0,2.7,2.7,28,0.00,,---,0.00,VWS V14.01,2013-02-25 17:41:00,
2013-02-25 10:46:00,53.1,20.8,30.12,NNW,338,0.0,0.0,28,0.00,,---,0.00,VWS V14.01,2013-02-25 17:46:00,
2013-02-25 10:51:00,53.8,21.5,30.12,NNW,338,0.0,0.0,28,0.00,,---,0.00,VWS V14.01,2013-02-25 17:51:00,
2013-02-25 10:56:00,54.3,21.9,30.12,East,90,0.0,0.0,28,0.00,,---,0.00,VWS V14.01,2013-02-25 17:56:00,
2013-02-25 11:01:00,54.7,22.2,30.12,ESE,112,3.1,3.1,28,0.00,,---,0.00,VWS V14.01,2013-02-25 18:01:00,
2013-02-25 11:06:00,55.8,24.0,30.12,SW,225,0.0,0.0,29,0.00,,---,0.00,VWS V14.01,2013-02-25 18:06:00,
2013-02-25 11:11:00,56.1,24.3,30.12,NNE,22,0.0,0.0,29,0.00,,---,0.00,VWS V14.01,2013-02-25 18:11:00,
2013-02-25 11:16:00,55.6,22.1,30.12,East,90,6.3,6.3,27,0.00,,---,0.00,VWS V14.01,2013-02-25 18:16:00,
2013-02-25 11:21:00,56.3,23.6,30.12,SW,225,2.9,2.9,28,0.00,,---,0.00,VWS V14.01,2013-02-25 18:21:00,
2013-02-25 11:26:00,56.1,23.5,30.12,WSW,248,0.9,1.1,28,0.00,,---,0.00,VWS V14.01,2013-02-25 18:26:00,
2013-02-25 11:31:00,56.3,23.6,30.12,South,180,1.1,1.1,28,0.00,,---,0.00,VWS V14.01,2013-02-25 18:31:00,
2013-02-25 11:36:00,56.5,23.8,30.12,SSW,202,0.0,4.5,28,0.00,,---,0.00,VWS V14.01,2013-02-25 18:36:00,
2013-02-25 11:41:00,56.8,24.1,30.12,SE,135,3.1,3.1,28,0.00,,---,0.00,VWS V14.01,2013-02-25 18:41:00,
2013-02-25 11:46:00,57.0,25.1,30.12,SSE,158,0.0,1.3,29,0.00,,---,0.00,VWS V14.01,2013-02-25 18:46:00,
2013-02-25 11:51:00,57.4,24.6,30.12,SE,135,0.9,0.9,28,0.00,,---,0.00,VWS V14.01,2013-02-25 18:51:00,
2013-02-25 11:56:00,57.6,24.7,30.12,SW,225,1.1,1.1,28,0.00,,---,0.00,VWS V14.01,2013-02-25 18:56:00,
2013-02-25 12:01:00,57.7,24.9,30.12,WSW,248,0.0,0.0,28,0.00,,---,0.00,VWS V14.01,2013-02-25 19:01:00,
2013-02-25 12:06:00,57.4,24.6,30.12,NNW,338,3.1,4.0,28,0.00,,---,0.00,VWS V14.01,2013-02-25 19:06:00,
2013-02-25 12:11:00,57.6,24.7,30.09,WSW,248,2.7,2.7,28,0.00,,---,0.00,VWS V14.01,2013-02-25 19:11:00,
2013-02-25 12:16:00,57.4,24.6,30.09,SE,135,0.0,3.4,28,0.00,,---,0.00,VWS V14.01,2013-02-25 19:16:00,
2013-02-25 12:21:00,57.6,24.7,30.09,SW,225,0.9,2.9,28,0.00,,---,0.00,VWS V14.01,2013-02-25 19:21:00,
2013-02-25 12:26:00,57.6,23.9,30.09,WSW,248,2.9,3.1,27,0.00,,---,0.00,VWS V14.01,2013-02-25 19:26:00,
2013-02-25 12:31:00,57.6,24.7,30.09,SW,225,2.5,2.5,28,0.00,,---,0.00,VWS V14.01,2013-02-25 19:31:00,
2013-02-25 12:36:00,57.6,23.9,30.09,West,270,0.0,0.0,27,0.00,,---,0.00,VWS V14.01,2013-02-25 19:36:00,
2013-02-25 12:41:00,57.9,25.0,30.06,SW,225,0.0,2.9,28,0.00,,---,0.00,VWS V14.01,2013-02-25 19:41:00,
2013-02-25 12:46:00,58.1,24.3,30.06,WSW,248,0.0,0.0,27,0.00,,---,0.00,VWS V14.01,2013-02-25 19:46:00,
2013-02-25 12:51:00,58.3,24.5,30.06,SSW,202,0.0,0.0,27,0.00,,---,0.00,VWS V14.01,2013-02-25 19:51:00,
2013-02-25 12:56:00,58.3,24.5,30.06,NNE,22,0.0,2.5,27,0.00,,---,0.00,VWS V14.01,2013-02-25 19:56:00,
2013-02-25 13:01:00,58.1,24.3,30.06,WSW,248,4.9,4.9,27,0.00,,---,0.00,VWS V14.01,2013-02-25 20:01:00,
2013-02-25 13:06:00,57.9,24.2,30.06,WSW,248,4.0,4.3,27,0.00,,---,0.00,VWS V14.01,2013-02-25 20:06:00,
2013-02-25 13:11:00,57.9,24.2,30.06,SW,225,4.3,5.8,27,0.00,,---,0.00,VWS V14.01,2013-02-25 20:11:00,
2013-02-25 13:16:00,58.1,24.3,30.06,SSW,202,0.0,2.9,27,0.00,,---,0.00,VWS V14.01,2013-02-25 20:16:00,
2013-02-25 13:21:00,58.5,24.6,30.06,WSW,248,5.4,5.4,27,0.00,,---,0.00,VWS V14.01,2013-02-25 20:21:00,
2013-02-25 13:26:00,58.3,24.5,30.06,SE,135,0.0,0.0,27,0.00,,---,0.00,VWS V14.01,2013-02-25 20:26:00,
2013-02-25 13:31:00,58.1,24.3,30.06,North,0,0.9,0.9,27,0.00,,---,0.00,VWS V14.01,2013-02-25 20:31:00,
2013-02-25 13:36:00,58.1,24.3,30.06,WSW,248,0.0,0.0,27,0.00,,---,0.00,VWS V14.01,2013-02-25 20:36:00,
2013-02-25 13:41:00,58.3,24.5,30.06,SE,135,0.0,0.0,27,0.00,,---,0.00,VWS V14.01,2013-02-25 20:41:00,
2013-02-25 13:46:00,58.5,24.6,30.06,South,180,2.2,2.2,27,0.00,,---,0.00,VWS V14.01,2013-02-25 20:46:00,
2013-02-25 13:51:00,58.8,24.9,30.06,SW,225,0.9,0.9,27,0.00,,---,0.00,VWS V14.01,2013-02-25 20:51:00,
2013-02-25 13:57:00,58.8,24.9,30.03,SW,225,6.5,6.5,27,0.00,,---,0.00,VWS V14.01,2013-02-25 20:57:00,
2013-02-25 14:02:00,58.6,24.8,30.03,SSW,202,0.0,0.0,27,0.00,,---,0.00,VWS V14.01,2013-02-25 21:02:00,
2013-02-25 14:07:00,58.6,24.8,30.03,South,180,0.0,0.0,27,0.00,,---,0.00,VWS V14.01,2013-02-25 21:07:00,
2013-02-25 14:12:00,58.8,24.9,30.03,WSW,248,0.9,0.9,27,0.00,,---,0.00,VWS V14.01,2013-02-25 21:12:00,
2013-02-25 14:17:00,58.8,24.0,30.03,WSW,248,1.3,2.5,26,0.00,,---,0.00,VWS V14.01,2013-02-25 21:17:00,
2013-02-25 14:22:00,59.2,25.2,30.03,NW,315,0.0,0.0,27,0.00,,---,0.00,VWS V14.01,2013-02-25 21:22:00,
2013-02-25 14:27:00,59.2,24.3,30.03,West,270,6.5,6.5,26,0.00,,---,0.00,VWS V14.01,2013-02-25 21:27:00,
2013-02-25 14:32:00,59.2,24.3,30.03,SSW,202,0.0,1.3,26,0.00,,---,0.00,VWS V14.01,2013-02-25 21:32:00,
2013-02-25 14:37:00,58.8,24.0,30.03,SW,225,0.0,3.1,26,0.00,,---,0.00,VWS V14.01,2013-02-25 21:37:00,
2013-02-25 14:42:00,58.6,23.9,30.03,WSW,248,0.0,0.0,26,0.00,,---,0.00,VWS V14.01,2013-02-25 21:42:00,
2013-02-25 14:47:00,59.0,24.2,30.03,SSW,202,2.5,3.6,26,0.00,,---,0.00,VWS V14.01,2013-02-25 21:47:00,
2013-02-25 14:52:00,59.4,24.5,30.03,SSW,202,2.0,2.0,26,0.00,,---,0.00,VWS V14.01,2013-02-25 21:52:00,
2013-02-25 14:57:00,59.5,24.6,30.03,WSW,248,4.9,4.9,26,0.00,,---,0.00,VWS V14.01,2013-02-25 21:57:00,
2013-02-25 15:02:00,59.5,24.6,30.03,West,270,3.1,3.1,26,0.00,,---,0.00,VWS V14.01,2013-02-25 22:02:00,
2013-02-25 15:07:00,59.9,25.0,30.03,South,180,0.0,0.0,26,0.00,,---,0.00,VWS V14.01,2013-02-25 22:07:00,
2013-02-25 15:12:00,59.7,24.8,30.03,NE,45,0.0,5.4,26,0.00,,---,0.00,VWS V14.01,2013-02-25 22:12:00,
2013-02-25 15:17:00,59.7,24.8,30.03,SW,225,2.9,2.9,26,0.00,,---,0.00,VWS V14.01,2013-02-25 22:17:00,
2013-02-25 15:23:00,59.9,25.0,30.03,SSE,158,4.7,4.7,26,0.00,,---,0.00,VWS V14.01,2013-02-25 22:23:00,
2013-02-25 15:28:00,59.4,24.5,30.03,SW,225,3.1,3.1,26,0.00,,---,0.00,VWS V14.01,2013-02-25 22:28:00,
2013-02-25 15:33:00,59.5,24.6,30.03,NW,315,4.7,4.7,26,0.00,,---,0.00,VWS V14.01,2013-02-25 22:33:00,
2013-02-25 15:38:00,59.4,24.5,30.03,SW,225,0.9,0.9,26,0.00,,---,0.00,VWS V14.01,2013-02-25 22:38:00,
2013-02-25 15:43:00,59.4,24.5,30.03,WSW,248,0.0,0.0,26,0.00,,---,0.00,VWS V14.01,2013-02-25 22:43:00,
2013-02-25 15:48:00,59.4,24.5,30.03,SW,225,5.6,5.6,26,0.00,,---,0.00,VWS V14.01,2013-02-25 22:48:00,
2013-02-25 15:53:00,59.5,24.6,30.03,West,270,0.0,0.9,26,0.00,,---,0.00,VWS V14.01,2013-02-25 22:53:00,
2013-02-25 15:58:00,59.7,24.8,30.03,NNE,22,0.0,0.0,26,0.00,,---,0.00,VWS V14.01,2013-02-25 22:58:00,
2013-02-25 16:03:00,59.4,24.5,30.03,NW,315,0.0,0.0,26,0.00,,---,0.00,VWS V14.01,2013-02-25 23:03:00,
2013-02-25 16:08:00,59.4,24.5,30.03,SW,225,0.0,0.0,26,0.00,,---,0.00,VWS V14.01,2013-02-25 23:08:00,
2013-02-25 16:13:00,59.5,24.6,30.03,SW,225,0.0,2.2,26,0.00,,---,0.00,VWS V14.01,2013-02-25 23:13:00,
2013-02-25 16:18:00,59.5,24.6,30.03,SW,225,1.6,2.9,26,0.00,,---,0.00,VWS V14.01,2013-02-25 23:18:00,
2013-02-25 16:23:00,59.5,24.6,30.03,SW,225,1.1,3.6,26,0.00,,---,0.00,VWS V14.01,2013-02-25 23:23:00,
2013-02-25 16:28:00,59.4,24.5,30.03,WSW,248,0.0,0.0,26,0.00,,---,0.00,VWS V14.01,2013-02-25 23:28:00,
2013-02-25 16:33:00,59.5,24.6,30.03,WSW,248,0.0,0.0,26,0.00,,---,0.00,VWS V14.01,2013-02-25 23:33:00,
2013-02-25 16:38:00,59.7,24.8,30.03,SW,225,0.0,3.8,26,0.00,,---,0.00,VWS V14.01,2013-02-25 23:38:00,
2013-02-25 16:43:00,59.5,24.6,30.00,West,270,0.0,3.1,26,0.00,,---,0.00,VWS V14.01,2013-02-25 23:43:00,
2013-02-25 16:48:00,59.5,24.6,30.00,WSW,248,0.0,2.2,26,0.00,,---,0.00,VWS V14.01,2013-02-25 23:48:00,
2013-02-25 16:53:00,59.4,24.5,30.00,SW,225,0.0,2.0,26,0.00,,---,0.00,VWS V14.01,2013-02-25 23:53:00,
2013-02-25 16:58:00,59.0,24.2,30.00,NW,315,0.0,0.0,26,0.00,,---,0.00,VWS V14.01,2013-02-25 23:58:00,
2013-02-25 17:03:00,58.5,23.7,30.00,WNW,292,0.0,0.0,26,0.00,,---,0.00,VWS V14.01,2013-02-26 00:03:00,
2013-02-25 17:09:00,58.1,23.4,30.00,NNW,338,0.0,2.0,26,0.00,,---,0.00,VWS V14.01,2013-02-26 00:09:00,
2013-02-25 17:14:00,57.7,23.1,30.03,West,270,3.4,3.4,26,0.00,,---,0.00,VWS V14.01,2013-02-26 00:14:00,
2013-02-25 17:19:00,57.4,22.8,30.03,South,180,0.0,0.0,26,0.00,,---,0.00,VWS V14.01,2013-02-26 00:19:00,
2013-02-25 17:24:00,57.0,23.4,30.03,SSW,202,1.1,1.1,27,0.00,,---,0.00,VWS V14.01,2013-02-26 00:24:00,
2013-02-25 17:29:00,56.5,22.9,30.03,SW,225,0.0,0.0,27,0.00,,---,0.00,VWS V14.01,2013-02-26 00:29:00,
2013-02-25 17:34:00,56.1,22.6,30.03,SW,225,2.9,2.9,27,0.00,,---,0.00,VWS V14.01,2013-02-26 00:34:00,
2013-02-25 17:39:00,55.4,22.0,30.03,WSW,248,0.0,0.0,27,0.00,,---,0.00,VWS V14.01,2013-02-26 00:39:00,
2013-02-25 17:44:00,54.7,21.4,30.03,SW,225,0.0,0.0,27,0.00,,---,0.00,VWS V14.01,2013-02-26 00:44:00,
2013-02-25 17:49:00,54.1,20.9,30.03,SW,225,0.0,0.0,27,0.00,,---,0.00,VWS V14.01,2013-02-26 00:49:00,
2013-02-25 17:54:00,53.8,20.6,30.03,West,270,0.0,0.0,27,0.00,,---,0.00,VWS V14.01,2013-02-26 00:54:00,
2013-02-25 17:59:00,53.1,20.0,30.03,WSW,248,0.0,0.0,27,0.00,,---,0.00,VWS V14.01,2013-02-26 00:59:00,
2013-02-25 18:04:00,52.5,19.5,30.03,SW,225,0.0,0.0,27,0.00,,---,0.00,VWS V14.01,2013-02-26 01:04:00,
2013-02-25 18:09:00,52.0,19.9,30.00,West,270,0.0,0.0,28,0.00,,---,0.00,VWS V14.01,2013-02-26 01:09:00,
2013-02-25 18:14:00,51.6,19.6,30.00,WSW,248,0.0,0.0,28,0.00,,---,0.00,VWS V14.01,2013-02-26 01:14:00,
2013-02-25 18:19:00,51.1,19.1,30.00,West,270,0.0,0.0,28,0.00,,---,0.00,VWS V14.01,2013-02-26 01:19:00,
2013-02-25 18:25:00,50.5,18.7,30.00,West,270,0.0,0.0,28,0.00,,---,0.00,VWS V14.01,2013-02-26 01:25:00,
2013-02-25 18:30:00,50.2,18.4,30.00,West,270,0.0,0.0,28,0.00,,---,0.00,VWS V14.01,2013-02-26 01:30:00,
2013-02-25 18:35:00,49.6,17.9,30.00,WSW,248,0.0,0.0,28,0.00,,---,0.00,VWS V14.01,2013-02-26 01:35:00,
2013-02-25 18:40:00,49.1,17.4,30.03,WNW,292,0.0,0.0,28,0.00,,---,0.00,VWS V14.01,2013-02-26 01:40:00,
2013-02-25 18:45:00,48.9,17.3,30.03,NNW,338,0.0,0.0,28,0.00,,---,0.00,VWS V14.01,2013-02-26 01:45:00,
2013-02-25 18:50:00,48.7,17.1,30.03,North,0,0.0,0.0,28,0.00,,---,0.00,VWS V14.01,2013-02-26 01:50:00,
2013-02-25 18:55:00,48.6,17.0,30.00,WNW,292,0.0,0.0,28,0.00,,---,0.00,VWS V14.01,2013-02-26 01:55:00,
2013-02-25 19:00:00,48.4,16.8,30.00,NW,315,0.0,0.0,28,0.00,,---,0.00,VWS V14.01,2013-02-26 02:00:00,
2013-02-25 19:05:00,48.2,16.6,30.00,NNW,338,0.0,0.0,28,0.00,,---,0.00,VWS V14.01,2013-02-26 02:05:00,
2013-02-25 19:10:00,48.2,16.6,30.00,NW,315,0.0,0.0,28,0.00,,---,0.00,VWS V14.01,2013-02-26 02:10:00,
2013-02-25 19:15:00,47.8,17.1,30.00,WNW,292,0.0,0.0,29,0.00,,---,0.00,VWS V14.01,2013-02-26 02:15:00,
2013-02-25 19:20:00,47.8,17.1,30.00,NNW,338,0.0,0.0,29,0.00,,---,0.00,VWS V14.01,2013-02-26 02:20:00,
2013-02-25 19:25:00,47.7,17.0,30.00,NNW,338,0.0,0.0,29,0.00,,---,0.00,VWS V14.01,2013-02-26 02:25:00,
2013-02-25 19:30:00,47.3,16.7,30.00,NNW,338,0.0,0.0,29,0.00,,---,0.00,VWS V14.01,2013-02-26 02:30:00,
2013-02-25 19:35:00,47.3,16.7,30.00,NNE,22,0.0,0.0,29,0.00,,---,0.00,VWS V14.01,2013-02-26 02:35:00,
2013-02-25 19:40:00,47.1,17.3,30.00,NNE,22,0.0,0.0,30,0.00,,---,0.00,VWS V14.01,2013-02-26 02:40:00,
2013-02-25 19:45:00,46.9,17.1,30.00,North,0,0.0,0.0,30,0.00,,---,0.00,VWS V14.01,2013-02-26 02:45:00,
2013-02-25 19:50:00,46.8,17.0,30.00,East,90,0.0,0.0,30,0.00,,---,0.00,VWS V14.01,2013-02-26 02:50:00,
2013-02-25 19:55:00,46.6,16.8,30.00,NNE,22,0.0,0.0,30,0.00,,---,0.00,VWS V14.01,2013-02-26 02:55:00,
2013-02-25 20:01:00,46.4,17.4,30.00,NNE,22,0.0,0.0,31,0.00,,---,0.00,VWS V14.01,2013-02-26 03:01:00,
2013-02-25 20:06:00,46.2,17.3,30.00,NNE,22,0.0,0.0,31,0.00,,---,0.00,VWS V14.01,2013-02-26 03:06:00,
2013-02-25 20:11:00,46.4,17.4,30.00,NNE,22,0.0,0.0,31,0.00,,---,0.00,VWS V14.01,2013-02-26 03:11:00,
2013-02-25 20:16:00,46.2,18.0,30.00,North,0,0.0,0.0,32,0.00,,---,0.00,VWS V14.01,2013-02-26 03:16:00,
2013-02-25 20:21:00,46.0,17.9,30.00,NNW,338,0.0,0.0,32,0.00,,---,0.00,VWS V14.01,2013-02-26 03:21:00,
2013-02-25 20:26:00,45.9,17.7,30.00,NNW,338,0.0,0.0,32,0.00,,---,0.00,VWS V14.01,2013-02-26 03:26:00,
2013-02-25 20:31:00,45.7,17.5,30.00,NNW,338,0.0,0.0,32,0.00,,---,0.00,VWS V14.01,2013-02-26 03:31:00,
2013-02-25 20:36:00,45.7,17.5,30.00,NNE,22,0.0,0.0,32,0.00,,---,0.00,VWS V14.01,2013-02-26 03:36:00,
2013-02-25 20:41:00,45.5,17.4,30.00,NE,45,0.0,0.0,32,0.00,,---,0.00,VWS V14.01,2013-02-26 03:41:00,
2013-02-25 20:46:00,45.1,17.1,30.00,NE,45,0.0,0.0,32,0.00,,---,0.00,VWS V14.01,2013-02-26 03:46:00,
2013-02-25 20:51:00,45.1,17.1,30.00,NNE,22,0.0,0.0,32,0.00,,---,0.00,VWS V14.01,2013-02-26 03:51:00,
2013-02-25 20:56:00,44.4,17.8,30.00,NNW,338,0.0,0.0,34,0.00,,---,0.00,VWS V14.01,2013-02-26 03:56:00,
2013-02-25 21:01:00,44.1,18.2,30.00,WNW,292,0.0,0.0,35,0.00,,---,0.00,VWS V14.01,2013-02-26 04:01:00,
2013-02-25 21:06:00,43.7,18.5,30.00,NNW,338,0.0,0.0,36,0.00,,---,0.00,VWS V14.01,2013-02-26 04:06:00,
2013-02-25 21:11:00,43.7,19.1,30.00,North,0,0.0,0.0,37,0.00,,---,0.00,VWS V14.01,2013-02-26 04:11:00,
2013-02-25 21:16:00,43.3,18.8,30.00,NNE,22,0.0,0.0,37,0.00,,---,0.00,VWS V14.01,2013-02-26 04:16:00,
2013-02-25 21:21:00,43.0,19.1,30.00,NNE,22,0.9,0.9,38,0.00,,---,0.00,VWS V14.01,2013-02-26 04:21:00,
2013-02-25 21:26:00,42.8,19.0,30.00,NNE,22,0.0,0.0,38,0.00,,---,0.00,VWS V14.01,2013-02-26 04:26:00,
2013-02-25 21:31:00,42.4,18.6,30.00,NE,45,0.0,0.0,38,0.00,,---,0.00,VWS V14.01,2013-02-26 04:31:00,
2013-02-25 21:36:00,42.4,18.6,30.00,NNW,338,0.0,0.0,38,0.00,,---,0.00,VWS V14.01,2013-02-26 04:36:00,
2013-02-25 21:41:00,42.6,18.8,30.00,NNE,22,0.0,0.0,38,0.00,,---,0.00,VWS V14.01,2013-02-26 04:41:00,
2013-02-25 21:46:00,42.4,18.6,30.00,NNE,22,0.0,0.0,38,0.00,,---,0.00,VWS V14.01,2013-02-26 04:46:00,
2013-02-25 21:51:00,42.4,18.6,30.00,NNW,338,0.0,0.0,38,0.00,,---,0.00,VWS V14.01,2013-02-26 04:51:00,
2013-02-25 21:57:00,42.4,18.6,30.00,NNW,338,0.0,0.0,38,0.00,,---,0.00,VWS V14.01,2013-02-26 04:57:00,
2013-02-25 22:00:00,42.3,18.5,30.00,North,0,0.0,0.0,38,0.00,,---,0.00,VWS V14.01,2013-02-26 05:00:00,
2013-02-25 22:05:00,42.1,18.3,30.00,NW,315,0.0,0.0,38,0.00,,---,0.00,VWS V14.01,2013-02-26 05:05:00,
2013-02-25 22:10:00,41.9,18.2,30.00,NNW,338,0.0,0.0,38,0.00,,---,0.00,VWS V14.01,2013-02-26 05:10:00,
2013-02-25 22:16:00,41.5,17.8,30.00,NNW,338,0.0,0.0,38,0.00,,---,0.00,VWS V14.01,2013-02-26 05:16:00,
2013-02-25 22:21:00,41.4,17.7,30.00,North,0,0.0,0.0,38,0.00,,---,0.00,VWS V14.01,2013-02-26 05:21:00,
2013-02-25 22:26:00,41.4,17.7,30.00,North,0,0.0,0.0,38,0.00,,---,0.00,VWS V14.01,2013-02-26 05:26:00,
2013-02-25 22:31:00,41.4,17.7,30.00,NNW,338,0.0,0.0,38,0.00,,---,0.00,VWS V14.01,2013-02-26 05:31:00,
2013-02-25 22:36:00,41.7,18.0,30.00,NNE,22,0.0,0.0,38,0.00,,---,0.00,VWS V14.01,2013-02-26 05:36:00,
2013-02-25 22:41:00,41.9,18.2,30.00,NNW,338,0.0,0.0,38,0.00,,---,0.00,VWS V14.01,2013-02-26 05:41:00,
2013-02-25 22:46:00,41.7,18.0,30.00,NNW,338,0.0,0.0,38,0.00,,---,0.00,VWS V14.01,2013-02-26 05:46:00,
2013-02-25 22:51:00,41.7,18.0,30.00,NNW,338,0.0,0.0,38,0.00,,---,0.00,VWS V14.01,2013-02-26 05:51:00,
2013-02-25 22:56:00,41.7,18.0,30.00,NNW,338,0.0,0.0,38,0.00,,---,0.00,VWS V14.01,2013-02-26 05:56:00,
2013-02-25 23:01:00,41.7,18.0,30.00,NNE,22,0.0,0.0,38,0.00,,---,0.00,VWS V14.01,2013-02-26 06:01:00,
2013-02-25 23:06:00,41.5,17.8,30.00,NNE,22,0.0,0.0,38,0.00,,---,0.00,VWS V14.01,2013-02-26 06:06:00,
2013-02-25 23:11:00,41.5,17.8,30.00,NE,45,0.0,0.0,38,0.00,,---,0.00,VWS V14.01,2013-02-26 06:11:00,
2013-02-25 23:16:00,41.4,17.7,30.00,NNE,22,0.0,0.0,38,0.00,,---,0.00,VWS V14.01,2013-02-26 06:16:00,
2013-02-25 23:21:00,40.8,17.8,30.00,NNW,338,0.0,0.0,39,0.00,,---,0.00,VWS V14.01,2013-02-26 06:21:00,
2013-02-25 23:26:00,40.5,17.5,29.97,NNW,338,0.0,0.0,39,0.00,,---,0.00,VWS V14.01,2013-02-26 06:26:00,
2013-02-25 23:32:00,40.5,17.5,29.97,NNW,338,0.0,0.0,39,0.00,,---,0.00,VWS V14.01,2013-02-26 06:32:00,
2013-02-25 23:37:00,40.5,17.5,29.97,NNE,22,0.0,0.0,39,0.00,,---,0.00,VWS V14.01,2013-02-26 06:37:00,
2013-02-25 23:42:00,40.6,17.6,30.00,NNW,338,0.0,0.0,39,0.00,,---,0.00,VWS V14.01,2013-02-26 06:42:00,
2013-02-25 23:47:00,40.6,17.6,30.00,NNW,338,0.0,0.0,39,0.00,,---,0.00,VWS V14.01,2013-02-26 06:47:00,
2013-02-25 23:52:00,40.6,17.6,30.00,NNW,338,0.0,0.0,39,0.00,,---,0.00,VWS V14.01,2013-02-26 06:52:00,
2013-02-25 23:57:00,40.6,17.6,29.97,NNW,338,0.0,0.0,39,0.00,,---,0.00,VWS V14.01,2013-02-26 06:57:00,